Powrót do katalogu

STARLINK-31117

AktywnyŁącznośćVLEO
NORAD 58776·PAYLOAD·🇺🇸 United States

Wystrzelony Jan 14, 2024 z Vandenberg Space Force Base

Loading…

Następne Przeloty (najbliższe 24 godziny)

TLE

ŚwieżeSource: CelesTrak SupGP

Epoka: Sep 14, 2026, 22:08 UTC

1 58776C 24011M   26257.92270833  .00015236  00000+0  44999-3 0  2578
2 58776  53.1588 213.5255 0001377 100.4889 103.4098 15.34394728    18

Śledź STARLINK-31117 w czasie rzeczywistym z AllMySat

Download on the App Store